Location: ???????
(55.4362°N, 38.1183°E)
Time: 15:03:39
(UTC+00:00)

Oscar 11 - Pass Details

Date: 06 December 2021
Orbit: 611 x 625 km, 97.6° (Epoch: 25 January)

Event Time Altitude Azimuth Distance (km) Brightness Sun altitude
Rises 14:51:38 0° 199° (SSW) 2,901 11.1 -14.7°
Reaches altitude 10° 14:54:10 10° 214° (SSW) 2,000 10.4 -15.1°
Maximum altitude 14:57:44 24° 269° (W) 1,298 9.6 -15.6°
Drops below altitude 10° 15:01:20 10° 324° (NW) 2,014 9.9 -16.0°
Sets 15:03:54 0° 338° (NNW) 2,926 10.6 -16.4°
